Location: Banff
(51.1667°N, 115.5667°W)
Time: 15:09:26
(UTC+00:00)

Altair - Pass Details

Date: 28 November 2020
Orbit: 1501 x 1682 km, 47.2° (Epoch: 15 January)

Event Time Altitude Azimuth Distance (km) Brightness Sun altitude
Rises 04:54:20 0° 230° (SW) 4,705 10.2 -47.5°
Reaches altitude 10° 04:57:31 10° 226° (SW) 3,703 9.6 -48.0°
Enters shadow 04:57:51 11° 225° (SW) 3,602 9.5 -48.0°
